1517439600.66,22544,8.25,72616.8,-4.11,-30.89,-31.33,0,*51
1517439601.92,22545,8.25,72608.0,-4.11,-30.89,-31.33,0,*50
1517439603.19,22546,8.25,72606.8,-4.11,-30.83,-31.23,0,*58
1517439604.43,22547,8.25,72606.5,-4.11,-30.67,-31.05,0,*57
1517439605.65,22548,8.19,72606.8,-4.13,-30.67,-31.17,0,*59
1517439606.9,22549,8.25,72600.5,-4.13,-30.77,-31.17,0,*59
1517439608.14,22550,8.25,72602.3,-4.13,-30.77,-31.17,0,*51
1517439609.41,22551,8.19,72598.0,-4.13,-30.89,-31.23,0,*56
1517439610.64,22552,8.25,72598.0,-4.13,-30.67,-31.17,0,*52
1517439611.86,22553,8.25,72596.0,-4.13,-30.67,-31.17,0,*53
1517439613.08,22554,8.25,72608.3,-4.13,-30.67,-31.05,0,*57
1517439614.37,22555,8.25,72608.8,-4.15,-30.73,-31.23,0,*51
1517439615.62,22556,8.25,72604.8,-4.13,-30.77,-31.17,0,*57
1517439616.89,22557,8.25,72606.0,-4.13,-30.77,-31.23,0,*51
1517439618.14,22558,8.19,72600.5,-4.13,-30.77,-31.17,0,*59
1517439619.4,22559,8.25,72604.8,-4.15,-30.83,-31.11,0,*53
1517439620.68,22560,8.19,72600.8,-4.15,-30.83,-31.23,0,*58
1517439621.95,22561,8.25,72604.3,-4.15,-30.83,-31.23,0,*59
1517439623.22,22562,8.25,72604.5,-4.15,-30.83,-31.39,0,*51
1517439624.49,22563,8.19,72606.0,-4.15,-30.73,-31.29,0,*5E
1517439625.73,22564,8.25,72606.8,-4.17,-30.89,-31.29,0,*5E
1517439627.0,22565,8.25,72608.5,-4.17,-30.89,-31.39,0,*5E
1517439628.24,22566,8.25,72614.3,-4.17,-30.89,-31.29,0,*5C
1517439629.47,22567,8.25,72616.0,-4.19,-31.01,-31.33,0,*59
1517439630.75,22568,8.25,72614.8,-4.19,-30.95,-31.45,0,*5B
1517439631.99,22569,8.25,72616.8,-4.17,-30.95,-31.29,0,*5E
1517439633.24,22570,8.19,72608.5,-4.17,-30.73,-31.29,0,*5E
1517439634.46,22571,8.19,72602.8,-4.17,-30.83,-31.29,0,*50
1517439635.73,22572,8.25,72602.3,-4.19,-30.89,-31.45,0,*5D
1517439636.99,22573,8.25,72600.0,-4.19,-30.89,-31.33,0,*5D
1517439638.25,22574,8.25,72596.3,-4.19,-30.77,-31.33,0,*5B
1517439639.52,22575,8.25,72594.3,-4.19,-30.77,-31.29,0,*51
1517439640.79,22576,8.25,72598.0,-4.19,-30.77,-31.29,0,*52
1517439642.06,22577,8.25,72606.0,-4.19,-30.77,-31.29,0,*53
1517439643.3,22578,8.25,72606.0,-4.21,-30.95,-31.33,0,*50
1517439644.56,22579,8.25,72608.5,-4.23,-30.95,-31.33,0,*53
1517439645.82,22580,8.25,72610.3,-4.23,-30.95,-31.33,0,*55
1517439647.11,22581,8.25,72610.3,-4.23,-30.95,-31.39,0,*5E
1517439648.38,22582,8.25,72610.3,-4.21,-30.95,-31.39,0,*5F
1517439649.67,22583,8.25,72618.0,-4.23,-30.95,-31.39,0,*5C
1517439650.94,22584,8.25,72612.5,-4.23,-30.83,-31.23,0,*57
1517439652.2,22585,8.25,72612.0,-4.23,-30.95,-31.33,0,*50
1517439653.42,22586,8.25,72606.3,-4.21,-30.83,-31.33,0,*56
1517439654.7,22587,8.25,72614.3,-4.23,-30.61,-30.95,0,*54
1517439655.97,22588,8.25,72604.3,-4.23,-30.33,-30.77,0,*50
1517439657.26,22589,8.25,72604.0,-4.23,-30.17,-30.51,0,*53
1517439658.55,22590,8.25,72604.3,-4.23,-30.17,-30.51,0,*5B
1517439659.79,22591,8.25,72600.5,-4.21,-30.01,-30.45,0,*5A
1517439661.07,22592,8.25,72612.0,-4.23,-30.01,-30.51,0,*5E
1517439662.29,22593,8.25,72608.5,-4.21,-29.79,-30.11,0,*5E
1517439663.56,22594,8.25,72596.8,-4.23,-29.61,-29.89,0,*5B
1517439664.83,22595,8.25,72588.0,-4.23,-29.45,-29.89,0,*5C
1517439666.1,22596,8.25,72600.0,-4.21,-29.39,-29.73,0,*53
1517439667.37,22597,8.25,72600.0,-4.21,-29.39,-29.73,0,*52
1517439668.59,22598,8.25,72588.8,-4.21,-29.45,-29.79,0,*5C
1517439669.85,22599,8.25,72602.8,-4.19,-29.13,-29.45,0,*5A
1517439671.09,22600,8.25,72606.5,-4.17,-29.17,-29.61,0,*55
1517439672.32,22601,8.25,72612.8,-4.17,-29.45,-29.67,0,*55
1517439673.59,22602,8.25,72604.5,-4.19,-29.39,-29.83,0,*59
1517439674.83,22603,8.25,72590.8,-4.17,-29.29,-29.61,0,*5B
1517439676.07,22604,8.25,72596.3,-4.17,-29.29,-29.67,0,*5A
1517439677.34,22605,8.25,72596.8,-4.15,-29.29,-29.67,0,*59
1517439678.58,22606,8.25,72606.3,-4.15,-29.45,-29.79,0,*5F
1517439679.82,22607,8.25,72602.5,-4.15,-29.45,-29.79,0,*5E
1517439681.06,22608,8.25,72602.3,-4.13,-29.39,-29.79,0,*5C
1517439682.3,22609,8.25,72592.3,-4.13,-29.29,-29.79,0,*5C
1517439683.54,22610,8.25,72594.5,-4.13,-29.13,-29.61,0,*54
1517439684.79,22611,8.25,72604.8,-4.13,-29.39,-29.83,0,*51
1517439686.01,22612,8.25,72612.8,-4.13,-29.57,-29.95,0,*5D
1517439687.26,22613,8.25,72606.3,-4.13,-29.45,-30.01,0,*5A
1517439688.51,22614,8.25,72594.5,-4.13,-29.39,-29.95,0,*53
1517439689.77,22615,8.25,72602.8,-4.09,-29.29,-29.73,0,*50
1517439691.03,22616,8.25,72604.8,-4.09,-29.29,-29.73,0,*53
1517439692.28,22617,8.19,72606.3,-4.09,-29.13,-29.73,0,*5B
1517439693.52,22618,8.25,72608.0,-4.09,-29.07,-29.73,0,*51
1517439694.75,22619,8.25,72610.3,-4.11,-29.07,-29.61,0,*5A
1517439695.97,22620,8.25,72598.5,-4.05,-29.07,-29.67,0,*53
1517439697.18,22621,8.25,72604.8,-4.09,-29.23,-29.79,0,*57
1517439698.42,22622,8.25,72602.0,-4.05,-29.17,-29.67,0,*50
1517439699.67,22623,8.25,72598.3,-4.05,-29.01,-29.67,0,*56
1517439700.91,22624,8.25,72606.0,-4.05,-29.23,-29.73,0,*54
1517439702.12,22625,8.25,72598.5,-4.05,-29.23,-29.79,0,*5F
1517439703.37,22626,8.25,72600.8,-4.05,-29.35,-29.79,0,*5B
1517439704.63,22627,8.25,72602.8,-4.03,-29.29,-29.73,0,*5B
1517439705.87,22628,8.25,72604.0,-4.03,-29.29,-29.83,0,*5B
1517439707.14,22629,8.25,72608.8,-4.03,-29.35,-29.89,0,*5D
1517439708.42,22630,8.25,72604.3,-4.01,-29.29,-29.73,0,*5F
1517439709.71,22631,8.25,72600.0,-4.01,-29.29,-29.73,0,*5E
1517439710.98,22632,8.25,72602.8,-4.01,-29.29,-29.83,0,*52
1517439712.25,22633,8.25,72600.0,-4.01,-29.45,-29.89,0,*53
1517439713.55,22634,8.25,72598.3,-4.01,-29.35,-30.01,0,*5B
1517439714.85,22635,8.25,72596.5,-4.01,-29.35,-29.89,0,*52
1517439716.09,22636,8.25,72604.5,-3.99,-29.29,-29.95,0,*57
1517439717.34,22637,8.25,72602.3,-3.99,-29.39,-29.83,0,*50
1517439718.58,22638,8.25,72602.8,-3.99,-29.45,-30.01,0,*56
1517439719.88,22639,8.25,72600.5,-4.01,-29.51,-30.17,0,*53
1517439721.16,22640,8.25,72596.5,-4.01,-29.61,-30.17,0,*5E
1517439722.4,22641,8.25,72602.3,-3.99,-29.57,-30.01,0,*5B
1517439723.62,22642,8.25,72602.5,-3.99,-29.61,-30.11,0,*5C
1517439724.89,22643,8.25,72602.8,-4.01,-29.45,-30.05,0,*58
1517439726.1,22644,8.25,72596.8,-3.99,-29.45,-30.11,0,*5C
1517439727.37,22645,8.25,72598.8,-4.01,-29.61,-30.17,0,*5B
1517439728.62,22646,8.25,72598.3,-3.99,-29.57,-30.01,0,*5C
1517439729.89,22647,8.25,72592.0,-3.97,-29.45,-30.01,0,*50
1517439731.17,22648,8.25,72584.0,-4.01,-29.45,-30.01,0,*57
1517439732.38,22649,8.25,72590.5,-3.99,-29.23,-29.79,0,*57
1517439733.62,22650,8.25,72602.0,-3.99,-29.39,-29.95,0,*56
1517439734.92,22651,8.19,72606.0,-4.01,-29.35,-29.89,0,*50
1517439736.14,22652,8.19,72590.8,-3.99,-29.23,-29.83,0,*58
1517439737.36,22653,8.25,72602.0,-3.99,-29.07,-29.61,0,*53
1517439738.6,22654,8.25,72600.5,-3.99,-29.13,-29.83,0,*5D
1517439739.81,22655,8.25,72602.8,-3.99,-29.23,-29.95,0,*58
1517439741.02,22656,8.19,72596.0,-3.95,-29.07,-29.79,0,*53
1517439742.27,22657,8.25,72606.5,-3.99,-29.39,-30.11,0,*55
1517439743.51,22658,8.25,72610.0,-3.97,-29.45,-30.11,0,*5F
1517439744.78,22659,8.25,72604.3,-3.97,-29.45,-30.01,0,*5F
1517439746.06,22660,8.25,72594.8,-3.95,-29.35,-29.89,0,*58
1517439747.29,22661,8.25,72596.8,-3.95,-29.17,-29.79,0,*56
1517439748.55,22662,8.25,72602.3,-3.95,-29.17,-29.89,0,*5A
1517439749.8,22663,8.25,72600.3,-3.95,-29.23,-29.89,0,*5C
1517439751.04,22664,8.25,72604.5,-3.95,-29.23,-29.89,0,*5B
1517439752.25,22665,8.25,72614.3,-3.95,-29.07,-29.79,0,*53
1517439753.51,22666,8.25,72610.5,-3.97,-29.13,-29.95,0,*55
1517439754.78,22667,8.25,72612.3,-3.97,-29.39,-30.11,0,*58
1517439756.02,22668,8.25,72608.8,-3.97,-29.23,-29.95,0,*58
1517439757.23,22669,8.25,72604.5,-3.95,-29.23,-29.95,0,*5B
1517439758.45,22670,8.25,72610.5,-3.95,-29.07,-29.95,0,*55
1517439759.66,22671,8.25,72608.5,-3.95,-29.23,-29.95,0,*52
1517439760.9,22672,8.25,72604.5,-3.95,-29.39,-30.27,0,*5B
1517439762.17,22673,8.25,72606.5,-3.95,-29.35,-30.05,0,*56
1517439763.41,22674,8.25,72604.3,-3.95,-29.39,-30.23,0,*59
1517439764.63,22675,8.25,72606.0,-3.95,-29.57,-30.45,0,*50
1517439765.85,22676,8.25,72606.8,-3.95,-29.61,-30.45,0,*56
1517439767.08,22677,8.25,72602.0,-3.95,-29.39,-30.11,0,*5B
1517439768.33,22678,8.25,72608.5,-3.95,-29.39,-30.11,0,*54
1517439769.59,22679,8.25,72606.0,-3.93,-29.39,-30.23,0,*52
1517439770.84,22680,8.25,72604.0,-3.97,-29.61,-30.45,0,*5D
1517439772.08,22681,8.25,72606.0,-3.95,-29.61,-30.39,0,*55
1517439773.33,22682,8.25,72604.0,-3.97,-29.57,-30.33,0,*5B
1517439774.58,22683,8.25,72604.8,-3.97,-29.57,-30.33,0,*5A
1517439775.82,22684,8.25,72604.5,-3.95,-29.51,-30.27,0,*5C
1517439777.07,22685,8.25,72606.5,-3.97,-29.57,-30.27,0,*59
1517439778.34,22686,8.25,72604.8,-3.97,-29.79,-30.51,0,*57
1517439779.61,22687,8.19,72602.5,-3.97,-29.61,-30.51,0,*5F
1517439780.86,22688,8.25,72602.0,-3.97,-29.57,-30.33,0,*51
1517439782.11,22689,8.25,72596.0,-3.97,-29.57,-30.27,0,*55
1517439783.35,22690,8.25,72592.0,-3.95,-29.51,-30.23,0,*5D
1517439784.59,22691,8.25,72592.8,-3.95,-29.61,-30.39,0,*54
1517439785.86,22692,8.25,72598.8,-3.97,-29.67,-30.51,0,*5D
1517439787.11,22693,8.25,72600.5,-3.97,-29.57,-30.45,0,*5A
1517439788.34,22694,8.25,72596.8,-3.99,-29.57,-30.33,0,*52
1517439789.59,22695,8.25,72604.0,-3.99,-29.57,-30.61,0,*54
1517439790.83,22696,8.25,72608.5,-3.99,-29.61,-30.51,0,*51
1517439792.08,22697,8.25,72610.8,-3.99,-29.61,-30.61,0,*53
1517439793.35,22698,8.25,72612.0,-3.97,-29.57,-30.51,0,*54
1517439794.6,22699,8.25,72606.8,-3.97,-29.57,-30.45,0,*50
1517439795.85,22700,8.25,72606.0,-3.99,-29.57,-30.51,0,*5A
1517439797.07,22701,8.25,72608.0,-3.99,-29.45,-30.33,0,*5C
1517439798.3,22702,8.25,72604.3,-3.99,-29.45,-30.33,0,*5F
1517439799.57,22703,8.25,72608.3,-3.97,-29.39,-30.27,0,*5E
1517439800.85,22704,8.25,72608.3,-3.97,-29.39,-30.33,0,*5C
1517439802.07,22705,8.25,72610.5,-3.99,-29.45,-30.27,0,*5D
1517439803.29,22706,8.25,72612.8,-3.99,-29.45,-30.33,0,*5B
1517439804.54,22707,8.25,72608.0,-3.99,-29.29,-30.27,0,*55
1517439805.78,22708,8.25,72610.5,-3.99,-29.39,-30.27,0,*5B
1517439807.0,22709,8.25,72610.3,-3.99,-29.23,-30.11,0,*54
1517439808.26,22710,8.19,72600.8,-3.99,-29.13,-30.01,0,*5E
1517439809.53,22711,8.25,72610.3,-3.97,-29.23,-30.01,0,*52
1517439810.79,22712,8.25,72608.8,-3.97,-29.13,-30.11,0,*53
1517439812.07,22713,8.25,72622.0,-3.97,-29.39,-30.27,0,*5F
1517439813.37,22714,8.25,72616.0,-3.97,-29.29,-30.17,0,*5A
1517439814.64,22715,8.25,72602.0,-3.97,-29.07,-30.01,0,*50
1517439815.91,22716,8.25,72602.3,-3.97,-28.91,-29.95,0,*58
1517439817.15,22717,8.25,72608.0,-3.97,-28.97,-29.95,0,*5F
1517439818.42,22718,8.25,72604.3,-3.97,-28.97,-30.01,0,*55
1517439819.72,22719,8.25,72604.0,-3.97,-28.91,-30.01,0,*52
1517439821.01,22720,8.25,72596.0,-3.97,-28.91,-30.01,0,*58
1517439822.25,22721,8.25,72598.8,-3.95,-28.91,-29.95,0,*5E
1517439823.49,22722,8.25,72604.5,-3.95,-28.91,-29.95,0,*5D
1517439824.77,22723,8.25,72596.0,-3.97,-28.85,-30.01,0,*5E
1517439826.04,22724,8.25,72596.0,-3.97,-29.07,-30.01,0,*52
1517439827.31,22725,8.25,72596.8,-3.97,-29.07,-30.01,0,*53
1517439828.55,22726,8.25,72598.8,-3.97,-29.07,-30.11,0,*51
1517439829.76,22727,8.25,72604.3,-3.95,-29.07,-30.11,0,*52
1517439831.0,22728,8.25,72606.0,-3.95,-28.91,-29.95,0,*57
1517439832.27,22729,8.25,72600.8,-3.97,-29.07,-30.17,0,*58
1517439833.51,22730,8.25,72602.3,-3.95,-28.91,-30.11,0,*5A
1517439834.81,22731,8.25,72604.0,-3.97,-29.13,-30.17,0,*54
1517439836.08,22732,8.25,72600.0,-3.97,-29.13,-30.33,0,*51
1517439837.29,22733,8.25,72598.0,-3.95,-29.23,-30.45,0,*50
1517439838.5,22734,8.19,72594.5,-3.95,-29.07,-30.27,0,*55
1517439839.72,22735,8.25,72598.5,-3.95,-28.97,-30.33,0,*59
1517439840.96,22736,8.25,72594.3,-3.95,-28.91,-29.95,0,*58
1517439842.2,22737,8.25,72600.3,-3.95,-28.85,-30.05,0,*5D
1517439843.41,22738,8.25,72598.3,-3.95,-28.69,-29.95,0,*51
1517439844.64,22739,8.25,72606.5,-3.95,-28.75,-29.95,0,*5D
1517439845.85,22740,8.25,72594.5,-3.95,-28.69,-29.95,0,*5E
1517439847.12,22741,8.25,72594.8,-3.95,-28.59,-29.89,0,*51
1517439848.36,22742,8.25,72604.3,-3.95,-28.53,-29.89,0,*58
1517439849.63,22743,8.25,72594.3,-3.95,-28.59,-29.89,0,*53
1517439850.89,22744,8.25,72602.8,-3.93,-28.53,-29.73,0,*5D
1517439852.15,22745,8.25,72602.3,-3.93,-28.53,-29.73,0,*5C
1517439853.39,22746,8.25,72594.0,-3.93,-28.37,-29.61,0,*5E
1517439854.59,22747,8.25,72592.8,-3.91,-28.31,-29.57,0,*5E
1517439855.87,22748,8.25,72598.0,-3.93,-28.43,-29.73,0,*50
1517439857.09,22749,8.25,72592.3,-3.91,-28.53,-29.83,0,*5D
1517439858.32,22750,8.25,72592.8,-3.91,-28.47,-29.83,0,*50
1517439859.55,22751,8.25,72598.5,-3.91,-28.47,-29.83,0,*51
1517439860.81,22752,8.25,72606.3,-3.89,-28.47,-29.83,0,*5B
1517439862.08,22753,8.25,72608.3,-3.89,-28.63,-29.83,0,*5C
1517439863.33,22754,8.25,72598.0,-3.91,-28.47,-29.73,0,*5B
1517439864.61,22755,8.25,72598.3,-3.89,-28.47,-29.73,0,*53
1517439865.88,22756,8.25,72602.5,-3.89,-28.37,-29.73,0,*57
1517439867.14,22757,8.25,72604.5,-3.89,-28.47,-29.83,0,*5E
1517439868.4,22758,8.25,72598.5,-3.89,-28.47,-29.83,0,*51
1517439869.68,22759,8.25,72610.0,-3.89,-28.47,-29.89,0,*5A
1517439870.92,22760,8.25,72604.8,-3.87,-28.53,-29.89,0,*5B
1517439872.16,22761,8.25,72602.3,-3.87,-28.59,-29.83,0,*5A
1517439873.4,22762,8.25,72602.8,-3.87,-28.59,-29.95,0,*5E
1517439874.63,22763,8.25,72602.8,-3.87,-28.63,-29.95,0,*56
1517439875.89,22764,8.25,72598.8,-3.87,-28.75,-30.01,0,*53
1517439877.15,22765,8.25,72610.5,-3.87,-28.75,-30.01,0,*52
1517439878.38,22766,8.25,72606.0,-3.87,-28.63,-30.11,0,*57
1517439879.61,22767,8.25,72604.0,-3.87,-28.59,-29.95,0,*5B
1517439880.84,22768,8.25,72602.8,-3.87,-28.63,-29.95,0,*5D
1517439882.08,22769,8.25,72604.8,-3.87,-28.59,-30.11,0,*51
1517439883.3,22770,8.25,72604.5,-3.87,-28.75,-30.11,0,*57
1517439884.51,22771,8.25,72602.5,-3.83,-28.69,-30.23,0,*5E
1517439885.81,22772,8.25,72594.5,-3.89,-28.75,-30.17,0,*5D
1517439887.07,22773,8.25,72598.5,-3.87,-28.75,-30.17,0,*52
1517439888.27,22774,8.25,72598.8,-3.83,-28.69,-30.11,0,*5A
1517439889.48,22775,8.25,72600.0,-3.83,-28.69,-30.11,0,*5B
1517439890.71,22776,8.25,72602.0,-3.83,-28.75,-30.23,0,*54
1517439891.95,22777,8.25,72594.5,-3.87,-28.91,-30.45,0,*5B
1517439893.18,22778,8.25,72590.3,-3.87,-28.97,-30.51,0,*57
1517439894.42,22779,8.25,72596.0,-3.83,-28.91,-30.45,0,*51
1517439895.66,22780,8.25,72592.8,-3.87,-29.07,-30.51,0,*58
1517439896.92,22781,8.25,72590.8,-3.87,-29.17,-30.55,0,*5C
1517439898.15,22782,8.25,72590.8,-3.87,-29.07,-30.51,0,*5A
1517439899.44,22783,8.25,72594.3,-3.89,-29.13,-30.51,0,*50
1517439900.67,22784,8.25,72588.5,-3.87,-29.07,-30.51,0,*5C
1517439901.88,22785,8.25,72590.3,-3.87,-29.07,-30.45,0,*58
1517439903.09,22786,8.25,72588.5,-3.87,-28.97,-30.45,0,*53
1517439904.33,22787,8.25,72582.5,-3.87,-29.07,-30.51,0,*5F
1517439905.62,22788,8.25,72580.5,-3.89,-29.13,-30.73,0,*5B
1517439906.92,22789,8.25,72586.8,-3.89,-29.01,-30.73,0,*59
1517439908.14,22790,8.25,72584.0,-3.87,-29.07,-30.67,0,*5C
1517439909.44,22791,8.25,72584.5,-3.89,-29.17,-30.89,0,*52
1517439910.65,22792,8.25,72584.3,-3.87,-29.23,-30.83,0,*52
1517439911.93,22793,8.25,72586.0,-3.89,-29.35,-31.05,0,*55
1517439913.22,22794,8.25,72592.0,-3.89,-29.35,-30.95,0,*5A
1517439914.52,22795,8.25,72600.3,-3.89,-29.35,-30.95,0,*5B
1517439915.79,22796,8.25,72598.8,-3.87,-29.35,-30.89,0,*5B
1517439917.08,22797,8.25,72596.8,-3.89,-29.35,-30.95,0,*59
1517439918.38,22798,8.25,72598.8,-3.89,-29.35,-30.95,0,*56
1517439919.65,22799,8.25,72610.3,-3.89,-29.35,-31.05,0,*5F
1517439920.86,22800,8.25,72610.0,-3.91,-29.45,-31.05,0,*5E
1517439922.11,22801,8.25,72614.0,-3.89,-29.45,-31.05,0,*56
1517439923.4,22802,8.25,72604.0,-3.93,-29.51,-31.11,0,*5E
1517439924.67,22803,8.25,72598.5,-3.93,-29.51,-31.01,0,*5E
1517439925.91,22804,8.25,72584.0,-3.93,-29.57,-31.01,0,*5F
1517439927.18,22805,8.25,72580.3,-3.95,-29.51,-31.11,0,*5F
1517439928.48,22806,8.25,72592.8,-3.93,-29.51,-31.11,0,*5A
1517439929.72,22807,8.25,72606.5,-3.95,-29.57,-31.11,0,*5B
1517439930.97,22808,8.25,72596.5,-3.95,-29.39,-31.01,0,*5D
1517439932.23,22809,8.25,72586.3,-3.95,-29.39,-30.95,0,*50
1517439933.49,22810,8.25,72584.0,-3.95,-29.39,-30.83,0,*5F
1517439934.75,22811,8.25,72584.0,-3.95,-29.35,-30.95,0,*55
1517439936.02,22812,8.25,72588.0,-3.95,-29.39,-31.11,0,*57
1517439937.29,22813,8.25,72600.5,-3.95,-29.39,-31.11,0,*56
1517439938.54,22814,8.25,72610.0,-3.97,-29.45,-31.05,0,*5D
1517439939.79,22815,8.25,72612.5,-3.97,-29.45,-31.05,0,*5C
1517439941.04,22816,8.25,72612.0,-3.97,-29.45,-31.17,0,*5C
1517439942.29,22817,8.25,72612.3,-3.97,-29.45,-31.17,0,*5D
1517439943.54,22818,8.25,72618.8,-3.97,-29.45,-31.05,0,*51
1517439944.79,22819,8.25,72616.3,-3.97,-29.45,-31.17,0,*53
1517439946.06,22820,8.25,72614.8,-4.01,-29.51,-31.05,0,*57
1517439947.33,22821,8.25,72608.5,-4.01,-29.61,-31.11,0,*50
1517439948.57,22822,8.25,72608.3,-3.99,-29.61,-31.23,0,*54
1517439949.79,22823,8.25,72618.8,-3.99,-29.57,-31.05,0,*54
1517439951.07,22824,8.25,72620.8,-4.01,-29.51,-31.05,0,*53
1517439952.31,22825,8.25,72618.0,-3.99,-29.29,-31.01,0,*5F
1517439953.57,22826,8.25,72604.3,-4.01,-29.29,-31.05,0,*5E
1517439954.87,22827,8.25,72604.8,-4.01,-29.35,-31.11,0,*57
1517439956.17,22828,8.25,72602.8,-4.01,-29.51,-31.23,0,*5B
1517439957.44,22829,8.25,72606.8,-4.01,-29.61,-31.23,0,*59
1517439958.71,22830,8.25,72602.5,-4.01,-29.61,-31.23,0,*51
1517439959.98,22831,8.25,72602.8,-4.01,-29.61,-31.23,0,*50
1517439961.2,22832,8.25,72600.8,-4.03,-29.67,-31.29,0,*5D
1517439962.42,22833,8.25,72606.0,-4.05,-29.67,-31.33,0,*51
1517439963.67,22834,8.25,72608.5,-4.03,-29.61,-31.23,0,*57
1517439964.89,22835,8.25,72610.3,-4.05,-29.67,-31.29,0,*5C
1517439966.11,22836,8.19,72610.0,-4.05,-29.67,-31.33,0,*54
1517439967.35,22837,8.19,72610.5,-4.05,-29.73,-31.33,0,*50
1517439968.57,22838,8.19,72612.3,-4.05,-29.67,-31.45,0,*5B
1517439969.81,22839,8.25,72614.3,-4.05,-29.73,-31.33,0,*5E
1517439971.06,22840,8.25,72612.8,-4.05,-29.73,-31.45,0,*51
1517439972.29,22841,8.25,72618.0,-4.09,-29.73,-31.33,0,*5D
1517439973.53,22842,8.25,72616.8,-4.11,-29.61,-31.17,0,*52
1517439974.78,22843,8.19,72610.3,-4.09,-29.61,-31.23,0,*5D
1517439976.01,22844,8.25,72610.8,-4.11,-29.61,-31.33,0,*52
1517439977.26,22845,8.25,72616.0,-4.09,-29.61,-31.23,0,*5B
1517439978.53,22846,8.25,72624.3,-4.11,-29.57,-31.23,0,*54
1517439979.8,22847,8.25,72620.3,-4.11,-29.61,-31.23,0,*50
1517439981.04,22848,8.25,72622.8,-4.11,-29.57,-31.17,0,*5D
1517439982.31,22849,8.25,72614.3,-4.11,-29.39,-31.01,0,*53
1517439983.58,22850,8.19,72616.8,-4.11,-29.39,-31.05,0,*5F
1517439984.85,22851,8.25,72618.3,-4.11,-29.39,-31.05,0,*5E
1517439986.11,22852,8.25,72614.8,-4.11,-29.29,-31.01,0,*58
1517439987.37,22853,8.19,72614.0,-4.11,-29.29,-31.01,0,*59
1517439988.62,22854,8.25,72614.8,-4.15,-28.97,-30.67,0,*5F
1517439989.85,22855,8.25,72608.8,-4.13,-29.07,-30.67,0,*50
1517439991.12,22856,8.25,72608.8,-4.13,-29.13,-30.77,0,*57
1517439992.35,22857,8.25,72616.0,-4.13,-29.23,-30.83,0,*5E
1517439993.59,22858,8.25,72610.3,-4.13,-28.79,-30.45,0,*55
1517439994.84,22859,8.25,72608.3,-4.13,-28.75,-30.45,0,*58
1517439996.08,22860,8.25,72610.3,-4.13,-28.75,-30.33,0,*53
1517439997.33,22861,8.25,72608.5,-4.13,-28.63,-30.27,0,*50
1517439998.6,22862,8.25,72600.5,-4.13,-28.43,-30.17,0,*52
1517439999.86,22863,8.25,72610.5,-4.11,-28.63,-30.27,0,*50
1517440001.12,22864,8.25,72612.3,-4.11,-28.59,-30.11,0,*5B
1517440002.36,22865,8.25,72610.0,-4.11,-28.53,-30.11,0,*50
1517440003.59,22866,8.25,72614.8,-4.11,-28.53,-30.11,0,*53
1517440004.86,22867,8.25,72610.0,-4.11,-28.53,-30.17,0,*54
1517440006.09,22868,8.25,72610.8,-4.09,-28.43,-30.11,0,*55
1517440007.35,22869,8.25,72604.0,-4.11,-28.59,-30.11,0,*56
1517440008.62,22870,8.25,72600.3,-4.11,-28.63,-30.27,0,*52
1517440009.85,22871,8.25,72598.3,-4.09,-28.63,-30.27,0,*5A
1517440011.09,22872,8.25,72606.0,-4.09,-28.75,-30.27,0,*5E
1517440012.33,22873,8.25,72604.0,-4.05,-28.59,-30.27,0,*5D
1517440013.57,22874,8.25,72604.3,-4.09,-28.63,-30.27,0,*5F
1517440014.81,22875,8.25,72604.8,-4.09,-28.63,-30.27,0,*5E
1517440016.05,22876,8.25,72598.5,-4.09,-28.79,-30.45,0,*52
1517440017.28,22877,8.25,72596.0,-4.09,-28.75,-30.45,0,*5F
1517440018.5,22878,8.19,72594.8,-4.05,-28.69,-30.23,0,*51
1517440019.71,22879,8.25,72604.0,-4.05,-28.69,-30.27,0,*54
1517440020.93,22880,8.25,72602.8,-4.03,-28.69,-30.23,0,*50
1517440022.14,22881,8.25,72606.0,-4.05,-28.69,-30.27,0,*53
1517440023.36,22882,8.25,72600.3,-4.05,-28.69,-30.11,0,*55
1517440024.57,22883,8.25,72594.3,-4.05,-28.69,-30.23,0,*55
1517440025.79,22884,8.25,72598.5,-4.05,-28.69,-30.27,0,*56
1517440027.01,22885,8.25,72586.8,-4.05,-28.53,-30.11,0,*5B
1517440028.25,22886,8.25,72600.3,-4.05,-28.53,-30.05,0,*5D
1517440029.47,22887,8.25,72598.8,-4.05,-28.37,-29.95,0,*5F
1517440030.71,22888,8.25,72604.3,-4.03,-28.53,-30.05,0,*55
1517440031.95,22889,8.25,72580.0,-4.03,-28.53,-30.05,0,*54
1517440033.19,22890,8.25,72588.3,-4.05,-28.59,-30.11,0,*55
1517440034.44,22891,8.25,72578.5,-4.03,-28.47,-30.05,0,*58
1517440035.7,22892,8.25,72586.8,-4.03,-28.25,-29.73,0,*56
1517440036.96,22893,8.25,72590.8,-4.03,-28.09,-29.73,0,*59
1517440038.22,22894,8.19,72590.0,-4.03,-28.09,-29.73,0,*5E
1517440039.51,22895,8.25,72594.3,-4.01,-28.09,-29.73,0,*5D
1517440040.77,22896,8.25,72584.8,-4.01,-28.31,-30.01,0,*58
1517440042.04,22897,8.25,72592.5,-4.01,-28.25,-29.83,0,*5E
1517440043.28,22898,8.25,72592.5,-3.99,-28.21,-29.79,0,*56
1517440044.54,22899,8.25,72596.0,-3.97,-28.09,-29.79,0,*53
1517440045.83,22900,8.25,72598.8,-4.01,-28.43,-30.01,0,*53
1517440047.1,22901,8.25,72610.0,-3.99,-28.47,-30.17,0,*57
1517440048.36,22902,8.25,72608.8,-3.99,-28.43,-30.01,0,*57
1517440049.58,22903,8.25,72598.8,-3.99,-28.37,-29.83,0,*57
1517440050.86,22904,8.25,72590.5,-3.97,-28.25,-29.83,0,*5D
1517440052.12,22905,8.25,72600.5,-3.97,-28.21,-29.79,0,*5D
1517440053.36,22906,8.25,72608.8,-3.97,-28.37,-29.95,0,*5B
1517440054.64,22907,8.25,72596.8,-3.97,-28.25,-29.83,0,*5E
1517440055.9,22908,8.25,72606.5,-3.97,-28.47,-30.11,0,*56
1517440057.2,22909,8.25,72606.0,-3.97,-28.59,-30.17,0,*5E
1517440058.41,22910,8.25,72602.0,-3.95,-28.53,-30.11,0,*58
1517440059.68,22911,8.25,72606.0,-3.97,-28.63,-30.33,0,*58
1517440060.89,22912,8.25,72602.0,-3.95,-28.53,-30.27,0,*5F
1517440062.11,22913,8.25,72606.5,-3.95,-28.69,-30.27,0,*57
1517440063.38,22914,8.25,72604.0,-3.97,-28.79,-30.33,0,*56
1517440064.65,22915,8.25,72598.5,-3.97,-28.63,-30.27,0,*59
1517440065.91,22916,8.25,72604.5,-3.97,-28.75,-30.27,0,*5D
1517440067.21,22917,8.19,72604.5,-3.97,-28.59,-30.17,0,*51
1517440068.42,22918,8.25,72600.3,-3.95,-28.53,-30.11,0,*50
1517440069.68,22919,8.25,72606.0,-3.93,-28.43,-30.11,0,*56
1517440070.94,22920,8.25,72608.0,-3.97,-28.47,-30.45,0,*5D
1517440072.18,22921,8.25,72602.3,-3.95,-28.59,-30.23,0,*51
1517440073.39,22922,8.25,72602.5,-3.95,-28.69,-30.45,0,*51
1517440074.63,22923,8.25,72600.0,-3.93,-28.85,-30.45,0,*54
1517440075.9,22924,8.25,72596.5,-3.95,-28.91,-30.55,0,*51
1517440077.15,22925,8.25,72598.0,-3.97,-28.97,-30.67,0,*55
1517440078.4,22926,8.25,72596.8,-3.97,-28.97,-30.67,0,*56
1517440079.67,22927,8.25,72606.8,-3.95,-29.01,-30.77,0,*5A
1517440080.95,22928,8.25,72604.3,-3.97,-29.13,-30.83,0,*5F
1517440082.25,22929,8.25,72602.3,-3.97,-28.91,-30.61,0,*59
1517440083.55,22930,8.25,72604.3,-3.97,-28.91,-30.51,0,*52
1517440084.82,22931,8.25,72596.8,-3.97,-29.07,-30.61,0,*5E
1517440086.08,22932,8.25,72604.8,-3.97,-29.07,-30.67,0,*5B
1517440087.33,22933,8.25,72602.0,-3.97,-28.97,-30.67,0,*52
1517440088.6,22934,8.25,72608.5,-3.97,-28.97,-30.61,0,*53
1517440089.9,22935,8.25,72602.8,-3.97,-28.91,-30.51,0,*57
1517440091.18,22936,8.19,72600.5,-3.99,-28.91,-30.61,0,*59
1517440092.42,22937,8.25,72604.3,-3.99,-28.75,-30.45,0,*54
1517440093.66,22938,8.25,72592.0,-3.99,-28.75,-30.45,0,*5B
1517440094.9,22939,8.25,72602.0,-3.99,-28.75,-30.33,0,*5B
1517440096.14,22940,8.25,72606.3,-3.99,-28.75,-30.33,0,*55
1517440097.39,22941,8.25,72612.5,-3.99,-28.75,-30.33,0,*54
1517440098.63,22942,8.25,72602.0,-3.99,-28.79,-30.33,0,*5B
1517440099.87,22943,8.25,72596.0,-3.95,-28.59,-30.23,0,*55
1517440101.08,22944,8.25,72608.3,-3.95,-28.53,-30.11,0,*59
1517440102.38,22945,8.25,72596.0,-3.97,-28.59,-30.01,0,*51
1517440103.67,22946,8.25,72610.5,-3.97,-28.43,-30.01,0,*59
1517440104.96,22947,8.19,72600.8,-3.97,-28.47,-30.01,0,*5C
1517440106.2,22948,8.25,72610.0,-3.95,-28.37,-29.89,0,*5E
1517440107.46,22949,8.25,72604.0,-3.97,-28.43,-29.95,0,*53
1517440108.68,22950,8.25,72608.0,-3.95,-28.37,-29.95,0,*5A